Regional Weather Roundup
Issued by NWS

Home | Current Version | Previous Version | Text Only | Print | Product List | Glossary On
Versions: 1 2 3 4 5 6 7 8 9 10 11 12 13 14 15 16 17 18 19 20 21 22 23 24 25 26 27 28 29 30 31 32 33 34 35 36 37 38 39 40 41 42 43 44 45 46 47 48 49 50
000
ASUS44 KFWD 291015
RWRTX
NORTH TEXAS HOURLY WEATHER ROUNDUP
NATIONAL WEATHER SERVICE FORT WORTH TX
500 AM CDT THU SEP 29 2016

NOTE: "FAIR" INDICATES FEW OR NO CLOUDS BELOW 12,000 FEET WITH NO
SIGNIFICANT WEATHER AND/OR OBSTRUCTIONS TO VISIBILITY.

TXZ118-119-291100-
DALLAS/FORT WORTH METROPLEX

CITY           SKY/WX    TMP DP  RH WIND       PRES   REMARKS
DFW AIRPORT    PTCLDY    65  49  56 N10       30.17R
DALLAS LOVE    PTCLDY    67  49  52 N7        30.17R
FTW MEACHAM    CLEAR     62  51  67 N7        30.19R
DAL-EXECUTIVE  CLEAR     65  49  56 N7        30.17R
FTW-ALLIANCE   PTCLDY    61  50  67 N9        30.19R
FTW-NAS-JRB    CLEAR     64  51  62 N7        30.20R
FTW-SPINKS     CLEAR     62  51  67 N7        30.20R
ARLINGTON      CLEAR     65  50  58 N10       30.18R
GRAND PRAIRIE  CLEAR     65  49  56 N10       30.18R
ADDISON        CLEAR     65  51  62 N9        30.19S
MESQUITE       CLEAR     65  50  57 N10G18    30.16S
LANCASTER      CLEAR     63  49  60 N5        30.17R
$$

TXZ091>094-102>105-117-120-121-131>134-291100-
NORTH CENTRAL TEXAS

CITY           SKY/WX    TMP DP  RH WIND       PRES   REMARKS
SHRMAN/DENISON CLEAR     60  52  75 N8        30.22R
GAINESVILLE      N/A     56  49  76 N7        30.23R
BOWIE          CLEAR     58  51  77 N3        30.23R
BRIDGEPORT     CLEAR     58  51  77 CALM      30.24R
DECATUR        CLEAR     59  47  65 NE6       30.21R
DENTON         CLEAR     57  50  77 N8        30.20R
MCKINNEY       CLEAR     59  50  72 N7        30.18R
GREENVILLE     CLEAR     59  48  67 N6        30.17R
ROCKWALL       CLEAR     61  50  68 NW7       30.16R
TERRELL        CLEAR     63  49  60 N10       30.16R
WAXAHACHIE     CLEAR     64  50  60 N7        30.18R
CLEBURNE       HAZE      64  54  68 N8        30.19R VSB 1/4
GRANBURY       CLEAR     66  53  61 N7        30.21R
$$

TXZ083>090-098>101-113>116-127>130-139>142-154-155-291100-
WESTERN NORTH TEXAS

CITY           SKY/WX    TMP DP  RH WIND       PRES   REMARKS
WICHITA FALLS  CLEAR     55  49  80 N8        30.25R
WF-KICKAPOO    CLEAR     60  49  66 N5        30.27R
VERNON         CLEAR     57  47  67 N5        30.29R
ABILENE        CLEAR     62  52  69 N3        30.24R
CISCO          CLEAR     61  55  82 N6        30.23R
BRECKENRIDGE     N/A     62  51  67 N3        30.23R
GRAHAM         CLEAR     61  52  72 NE5       30.22R
MINERAL WELLS  CLEAR     62  49  62 N5        30.19R
STEPHENVILLE   CLEAR     64  52  67 N6        30.23R
COMANCHE       CLEAR     61  55  81 NW6       30.21R
BROWNWOOD      PTCLDY    63  54  72 N5        30.20R
COLEMAN        CLEAR     61  53  73 N6        30.21R
$$

TXZ143>147-156>162-174-175-291100-
CENTRAL TEXAS

CITY           SKY/WX    TMP DP  RH WIND       PRES   REMARKS
WACO           CLEAR     62  57  83 N7        30.14R
WACO-MCGREGOR  CLEAR     64  56  75 NW8       30.15R
HILLSBORO      CLEAR     64  50  62 N8        30.16R
CORSICANA      CLEAR     63  56  78 N7        30.14R
MEXIA          PTCLDY    65  56  74 N6        30.11R
HEARNE         CLEAR     59  58  97 CALM      30.11R
CAMERON        CLEAR     61  56  84 W6        30.11R
TEMPLE         CLEAR     58  55  90 NW8       30.14R
KILLEEN        NOT AVBL
KILLEEN-SKYLRK CLEAR     63  55  75 NW7       30.15R
GATESVILLE     CLEAR     63  55  77 CALM      30.18R
HAMILTON       CLEAR     60  55  84 N6        30.19R
LAMPASAS       CLEAR     60  56  84 N6G16     30.16R
$$

TXZ095>097-106>112-122>126-135>138-148>153-164>167-291100-
EAST TEXAS

CITY           SKY/WX    TMP DP  RH WIND       PRES   REMARKS
PARIS          CLEAR     57  46  67 N9        30.17R
SULPHUR SPRNGS CLEAR     62  50  64 N10       30.18R
MOUNT PLEASANT CLEAR     61  49  65 N5        30.17R
GILMER         CLEAR     62  52  71 N3        30.14R
MINEOLA        CLEAR     59  54  82 N3        30.15R
TYLER          CLEAR     65  54  67 N8        30.12R
LONGVIEW       CLEAR     65  53  65 NE7       30.12R
MARSHALL       CLEAR     63  50  63 NE3       30.14R
ATHENS         CLEAR     64  52  63 N5        30.11R
PALESTINE      CLEAR     67  57  72 N10       30.11R
JACKSONVILLE   CLEAR     65  56  73 N7        30.13R
HENDERSON      CLEAR     64  53  66 NE8       30.12R
CENTER         SUNNY     65  58  77 N6        30.10R
NACOGDOCHES    CLEAR     64  55  72 N5        30.07R
LUFKIN         CLEAR     60  57  89 NW5       30.07R
$$

SUPPLEMENTAL OBSERVATIONS (CENTRAL)

CITY           SKY/WX    TMP DP  RH WIND       PRES   REMARKS
DENISON DAM      N/A     61  48  63 N12         N/A
CADDO GRASSLND   N/A     54  50  87 CALM        N/A
PAT MAYSE LAKE   N/A     55  48  76 NW6         N/A
GREENVILLE       N/A     57  48  72 N7          N/A
CEDAR HILL       N/A     63  48  59 NE3         N/A
LAKE LIMESTONE   N/A     64  55  72 N6          N/A
MCGREGOR         N/A     63  57  82 VRB3        N/A
$$

SUPPLEMENTAL OBSERVATIONS (WEST)

CITY           SKY/WX    TMP DP  RH WIND       PRES   REMARKS
LBJ GRASSLAND    N/A     61  48  63 VRB3        N/A
COMANCHE         N/A     63  54  72 NW7         N/A
HAMBY            N/A     63  52  67 NE3G13      N/A
IVIE RESERVOIR   N/A     61  57  88 W5          N/A
COLORADO BEND    N/A     57  50  77 N1          N/A
$$

SUPPLEMENTAL OBSERVATIONS (EAST)

CITY           SKY/WX    TMP DP  RH WIND       PRES   REMARKS
CLARKSVILLE      N/A     57  46  67 N5          N/A
TEXARKANA        N/A     63  50  63 NE5         N/A
LINDEN           N/A     63  50  63 NE2         N/A
CADDO LAKE       N/A     64  52  63 N3G12       N/A
GILMER           N/A     63  52  67 N3          N/A
HENDERSON        N/A     64  54  68 NE5         N/A
LUFKIN           N/A     61  57  88 MISG        N/A
N SABINE NF      N/A     61  57  88 MISG        N/A
S SABINE NF      N/A     66  57  72 N5          N/A
$$

SUPPLEMENTAL OBSERVATIONS ARE A COLLECTION OF AUTOMATED INSTRUMENTS
THAT ARE MAINTAINED BY A VARIETY OF FEDERAL AND STATE AGENCIES.
CERTAIN ELEMENTS...SUCH AS HUMIDITY VALUES AND SUSTAINED WIND
SPEEDS...MAY BE APPROXIMATED.





USA.gov is the U.S. government's official web portal to all federal, state and local government web resources and services.